Location: Althorst
(53.6379°N, 10.7715°E)
Time: 16:47:10
(UTC+00:00)

Cosmos 1400 Rocket - Pass Details

Date: 10 December 2019
Orbit: 521 x 569 km, 81.2° (Epoch: 18 January)

Event Time Altitude Azimuth Distance (km) Brightness Sun altitude
Rises 15:53:38 0° 207° (SSW) 2,747 7.4 -7.8°
Reaches altitude 10° 15:55:53 10° 213° (SSW) 1,849 6.6 -8.1°
Maximum altitude 15:59:50 48° 288° (WNW) 732 3.8 -8.6°
Drops below altitude 10° 16:03:47 10° 4° (N) 1,838 5.2 -9.1°
Sets 16:06:00 0° 10° (N) 2,728 6.0 -9.4°
